| time (UTC) | temp F | wind direction | speed MPH | gust MPH | rain 1hr in | rain 24hr in | rain mn in | humidity % | barometer mb |
| 20260506091045 | 51 | 0 | 1.0 | 2.0 | 0.00 | 0.00 | 0.00 | 78 | 1022.2 |
| 20260506090152 | 51 | 0 | 0.0 | 2.0 | 0.00 | 0.00 | 0.00 | 79 | 1022.2 |
| 20260506085255 | 52 | 0 | 1.0 | 2.0 | 0.00 | 0.00 | 0.00 | 78 | 1022.1 |
| 20260506084402 | 52 | 0 | 1.0 | 2.0 | 0.00 | 0.00 | 0.00 | 77 | 1022.1 |
| 20260506083508 | 52 | 0 | 1.0 | 2.0 | 0.00 | 0.00 | 0.00 | 77 | 1022.3 |
| 20260506082615 | 53 | 0 | 1.0 | 3.0 | 0.00 | 0.00 | 0.00 | 77 | 1022.5 |
| 20260506081721 | 53 | 0 | 1.0 | 3.0 | 0.00 | 0.00 | 0.00 | 77 | 1022.5 |
| 20260506080827 | 53 | 0 | 1.0 | 5.0 | 0.00 | 0.00 | 0.00 | 76 | 1022.3 |
| 20260506073250 | 53 | 0 | 1.0 | 2.0 | 0.00 | 0.00 | 0.00 | 75 | 1021.7 |
| 20260506072356 | 53 | 0 | 1.0 | 2.0 | 0.00 | 0.00 | 0.00 | 75 | 1021.5 |
| 20260506071502 | 54 | 0 | 1.0 | 4.0 | 0.00 | 0.00 | 0.00 | 74 | 1021.6 |
| 20260506070608 | 55 | 0 | 2.0 | 4.0 | 0.00 | 0.00 | 0.00 | 73 | 1021.8 |
| 20260506062139 | 55 | 0 | 1.0 | 2.0 | 0.00 | 0.00 | 0.00 | 73 | 1022.1 |
| 20260506061245 | 55 | 0 | 0.0 | 4.0 | 0.00 | 0.00 | 0.00 | 73 | 1022.2 |
| 20260506060351 | 55 | 0 | 2.0 | 4.0 | 0.00 | 0.00 | 0.00 | 73 | 1022.5 |
| 20260506051028 | 55 | 0 | 1.0 | 3.0 | 0.00 | 0.00 | 0.00 | 73 | 1022.6 |
| 20260506050134 | 55 | 0 | 1.0 | 3.0 | 0.00 | 0.00 | 0.00 | 73 | 1022.8 |
| 20260506044345 | 55 | 0 | 0.0 | 1.0 | 0.00 | 0.00 | 0.00 | 72 | 1022.8 |
| 20260506043451 | 55 | 0 | 0.0 | 2.0 | 0.00 | 0.00 | 0.00 | 73 | 1022.9 |
| 20260506042558 | 55 | 0 | 1.0 | 2.0 | 0.00 | 0.00 | 0.00 | 72 | 1022.8 |
| 20260506041703 | 56 | 0 | 1.0 | 2.0 | 0.00 | 0.00 | 0.00 | 72 | 1022.8 |
| 20260506040809 | 56 | 0 | 1.0 | 2.0 | 0.00 | 0.00 | 0.00 | 71 | 1022.9 |
| 20260506035915 | 56 | 0 | 0.0 | 2.0 | 0.00 | 0.00 | 0.00 | 71 | 1023.0 |
| 20260506035020 | 56 | 0 | 1.0 | 2.0 | 0.00 | 0.00 | 0.00 | 71 | 1023.1 |
| 20260506034125 | 56 | 0 | 1.0 | 2.0 | 0.00 | 0.00 | 0.00 | 71 | 1023.2 |
| 20260506033232 | 56 | 0 | 1.0 | 2.0 | 0.00 | 0.00 | 0.00 | 71 | 1023.0 |
| 20260506032336 | 56 | 0 | 0.0 | 3.0 | 0.00 | 0.00 | 0.00 | 71 | 1023.0 |
| 20260506031443 | 57 | 0 | 1.0 | 3.0 | 0.00 | 0.00 | 0.00 | 70 | 1023.0 |
| 20260506030549 | 57 | 0 | 1.0 | 3.0 | 0.00 | 0.00 | 0.00 | 70 | 1022.9 |
| 20260506025655 | 56 | 0 | 0.0 | 3.0 | 0.00 | 0.00 | 0.00 | 71 | 1022.9 |
| 20260506024800 | 56 | 0 | 1.0 | 3.0 | 0.00 | 0.00 | 0.00 | 71 | 1022.8 |
| 20260506023907 | 56 | 0 | 2.0 | 4.0 | 0.00 | 0.00 | 0.00 | 71 | 1022.8 |
| 20260506023010 | 56 | 0 | 2.0 | 4.0 | 0.00 | 0.00 | 0.00 | 71 | 1023.1 |
| 20260506022115 | 57 | 0 | 1.0 | 3.0 | 0.00 | 0.00 | 0.00 | 70 | 1023.1 |
| 20260506021220 | 57 | 0 | 2.0 | 3.0 | 0.00 | 0.00 | 0.00 | 70 | 1023.0 |
| 20260506020325 | 57 | 0 | 1.0 | 3.0 | 0.00 | 0.00 | 0.00 | 70 | 1022.9 |
| 20260506015431 | 57 | 0 | 1.0 | 3.0 | 0.00 | 0.00 | 0.00 | 69 | 1023.0 |
| 20260506014537 | 57 | 0 | 2.0 | 4.0 | 0.00 | 0.00 | 0.00 | 68 | 1023.0 |
| 20260506013643 | 57 | 0 | 2.0 | 4.0 | 0.00 | 0.00 | 0.00 | 69 | 1023.0 |
| 20260506012748 | 58 | 0 | 0.0 | 4.0 | 0.00 | 0.00 | 0.00 | 67 | 1023.1 |
| 20260506011853 | 57 | 0 | 2.0 | 6.0 | 0.00 | 0.00 | 0.00 | 69 | 1023.2 |
| 20260506011000 | 58 | 0 | 2.0 | 6.0 | 0.00 | 0.00 | 0.00 | 67 | 1023.1 |
| 20260506010105 | 58 | 0 | 3.0 | 7.0 | 0.00 | 0.00 | 0.00 | 68 | 1023.3 |
| 20260506005210 | 58 | 0 | 3.0 | 7.0 | 0.00 | 0.00 | 0.00 | 66 | 1023.2 |
| 20260506004316 | 58 | 0 | 3.0 | 7.0 | 0.00 | 0.00 | 0.00 | 66 | 1023.2 |
| 20260506003421 | 59 | 0 | 3.0 | 6.0 | 0.00 | 0.00 | 0.00 | 66 | 1023.2 |
| 20260506002528 | 59 | 0 | 3.0 | 6.0 | 0.00 | 0.00 | 0.00 | 65 | 1022.9 |
| 20260506001634 | 59 | 0 | 2.0 | 7.0 | 0.00 | 0.00 | 0.00 | 64 | 1022.4 |
| 20260506000741 | 60 | 0 | 3.0 | 7.0 | 0.00 | 0.00 | 0.00 | 63 | 1022.5 |
| 20260505235847 | 60 | 0 | 3.0 | 8.0 | 0.00 | 0.00 | 0.00 | 62 | 1022.2 |
| 20260505234953 | 60 | 0 | 3.0 | 8.0 | 0.00 | 0.00 | 0.00 | 63 | 1022.3 |
| 20260505234059 | 60 | 0 | 4.0 | 8.0 | 0.00 | 0.00 | 0.00 | 63 | 1022.2 |
| 20260505233205 | 61 | 0 | 3.0 | 6.0 | 0.00 | 0.00 | 0.00 | 62 | 1022.2 |
| 20260505232312 | 61 | 0 | 3.0 | 7.0 | 0.00 | 0.00 | 0.00 | 61 | 1022.1 |
| 20260505231417 | 61 | 0 | 2.0 | 7.0 | 0.00 | 0.00 | 0.00 | 61 | 1022.1 |
| 20260505230524 | 61 | 0 | 2.0 | 5.0 | 0.00 | 0.00 | 0.00 | 61 | 1022.0 |
| 20260505225629 | 62 | 0 | 2.0 | 7.0 | 0.00 | 0.00 | 0.00 | 61 | 1021.9 |
| 20260505224736 | 62 | 0 | 3.0 | 7.0 | 0.00 | 0.00 | 0.00 | 58 | 1021.7 |
| 20260505223842 | 62 | 0 | 1.0 | 5.0 | 0.00 | 0.00 | 0.00 | 58 | 1021.6 |
| 20260505222948 | 62 | 0 | 2.0 | 7.0 | 0.00 | 0.00 | 0.00 | 57 | 1021.5 |
| 20260505222054 | 63 | 0 | 4.0 | 7.0 | 0.00 | 0.00 | 0.00 | 54 | 1021.3 |
| 20260505221159 | 63 | 0 | 2.0 | 7.0 | 0.00 | 0.00 | 0.00 | 54 | 1021.3 |
| 20260505220304 | 63 | 0 | 3.0 | 7.0 | 0.00 | 0.00 | 0.00 | 51 | 1021.2 |
| 20260505215410 | 64 | 0 | 3.0 | 7.0 | 0.00 | 0.00 | 0.00 | 52 | 1021.2 |
| 20260505214517 | 64 | 0 | 3.0 | 5.0 | 0.00 | 0.00 | 0.00 | 50 | 1020.7 |
| 20260505213623 | 64 | 0 | 2.0 | 7.0 | 0.00 | 0.00 | 0.00 | 49 | 1020.5 |
| 20260505212729 | 65 | 0 | 3.0 | 6.0 | 0.00 | 0.00 | 0.00 | 48 | 1020.4 |
| 20260505211834 | 65 | 0 | 3.0 | 6.0 | 0.00 | 0.00 | 0.00 | 47 | 1020.4 |
| 20260505210940 | 65 | 0 | 3.0 | 6.0 | 0.00 | 0.00 | 0.00 | 46 | 1020.3 |
| 20260505210044 | 65 | 0 | 2.0 | 6.0 | 0.00 | 0.00 | 0.00 | 45 | 1020.2 |
| 20260505205151 | 66 | 0 | 2.0 | 6.0 | 0.00 | 0.00 | 0.00 | 45 | 1020.3 |
| 20260505204256 | 66 | 0 | 3.0 | 6.0 | 0.00 | 0.00 | 0.00 | 44 | 1020.4 |
| 20260505203402 | 66 | 0 | 2.0 | 6.0 | 0.00 | 0.00 | 0.00 | 44 | 1020.5 |
| 20260505202509 | 66 | 0 | 2.0 | 6.0 | 0.00 | 0.00 | 0.00 | 43 | 1020.3 |
| 20260505201615 | 66 | 0 | 2.0 | 6.0 | 0.00 | 0.00 | 0.00 | 43 | 1020.2 |
| 20260505200722 | 67 | 0 | 3.0 | 7.0 | 0.00 | 0.00 | 0.00 | 42 | 1020.0 |
| 20260505195828 | 67 | 0 | 4.0 | 7.0 | 0.00 | 0.00 | 0.00 | 42 | 1020.3 |
| 20260505194934 | 67 | 0 | 3.0 | 7.0 | 0.00 | 0.00 | 0.00 | 41 | 1020.2 |
| 20260505194040 | 68 | 0 | 3.0 | 7.0 | 0.00 | 0.00 | 0.00 | 39 | 1020.2 |
| 20260505193145 | 68 | 0 | 2.0 | 6.0 | 0.00 | 0.00 | 0.00 | 36 | 1020.0 |
| 20260505192251 | 68 | 0 | 2.0 | 6.0 | 0.00 | 0.00 | 0.00 | 36 | 1020.0 |
| 20260505191356 | 69 | 0 | 3.0 | 8.0 | 0.00 | 0.00 | 0.00 | 35 | 1020.0 |
| 20260505190502 | 69 | 0 | 4.0 | 9.0 | 0.00 | 0.00 | 0.00 | 35 | 1019.8 |
| 20260505185610 | 69 | 0 | 5.0 | 9.0 | 0.00 | 0.00 | 0.00 | 34 | 1019.9 |
| 20260505184713 | 69 | 0 | 4.0 | 9.0 | 0.00 | 0.00 | 0.00 | 34 | 1019.8 |
| 20260505183819 | 70 | 0 | 4.0 | 7.0 | 0.00 | 0.00 | 0.00 | 34 | 1019.8 |
| 20260505182925 | 70 | 0 | 3.0 | 8.0 | 0.00 | 0.00 | 0.00 | 33 | 1019.7 |
| 20260505182030 | 70 | 0 | 5.0 | 11.0 | 0.00 | 0.00 | 0.00 | 32 | 1019.5 |
| 20260505181136 | 70 | 0 | 4.0 | 11.0 | 0.00 | 0.00 | 0.00 | 34 | 1019.6 |
| 20260505180242 | 70 | 0 | 3.0 | 7.0 | 0.00 | 0.00 | 0.00 | 33 | 1019.5 |
| 20260505175348 | 70 | 0 | 3.0 | 8.0 | 0.00 | 0.00 | 0.00 | 31 | 1019.5 |
| 20260505174455 | 70 | 0 | 4.0 | 8.0 | 0.00 | 0.00 | 0.00 | 33 | 1019.5 |
| 20260505173600 | 70 | 0 | 3.0 | 7.0 | 0.00 | 0.00 | 0.00 | 33 | 1019.4 |
| 20260505172706 | 70 | 0 | 3.0 | 7.0 | 0.00 | 0.00 | 0.00 | 36 | 1019.6 |
| 20260505171812 | 70 | 0 | 3.0 | 8.0 | 0.00 | 0.00 | 0.00 | 34 | 1019.4 |
| 20260505170918 | 69 | 0 | 4.0 | 8.0 | 0.00 | 0.00 | 0.00 | 35 | 1019.5 |
| 20260505170024 | 69 | 0 | 3.0 | 6.0 | 0.00 | 0.00 | 0.00 | 35 | 1019.4 |
| 20260505165130 | 69 | 0 | 3.0 | 6.0 | 0.00 | 0.00 | 0.00 | 37 | 1019.6 |
| 20260505164234 | 69 | 0 | 2.0 | 6.0 | 0.00 | 0.00 | 0.00 | 36 | 1019.7 |
| 20260505163339 | 68 | 0 | 3.0 | 6.0 | 0.00 | 0.00 | 0.00 | 37 | 1019.8 |
| 20260505162446 | 68 | 0 | 3.0 | 6.0 | 0.00 | 0.00 | 0.00 | 38 | 1019.8 |
| 20260505161552 | 68 | 0 | 3.0 | 6.0 | 0.00 | 0.00 | 0.00 | 38 | 1019.8 |
| 20260505160659 | 67 | 0 | 2.0 | 4.0 | 0.00 | 0.00 | 0.00 | 38 | 1019.7 |
| 20260505153123 | 65 | 0 | 1.0 | 4.0 | 0.00 | 0.00 | 0.00 | 38 | 1020.2 |
| 20260505152229 | 65 | 0 | 2.0 | 4.0 | 0.00 | 0.00 | 0.00 | 38 | 1020.3 |
| 20260505151336 | 65 | 0 | 1.0 | 4.0 | 0.00 | 0.00 | 0.00 | 39 | 1020.5 |
| 20260505150441 | 64 | 0 | 2.0 | 4.0 | 0.00 | 0.00 | 0.00 | 39 | 1020.7 |
| 20260505140222 | 61 | 0 | 2.0 | 4.0 | 0.00 | 0.00 | 0.00 | 46 | 1021.1 |
| 20260505124215 | 57 | 0 | 0.0 | 3.0 | 0.00 | 0.00 | 0.00 | 51 | 1022.3 |
| 20260505123317 | 57 | 0 | 1.0 | 2.0 | 0.00 | 0.00 | 0.00 | 51 | 1022.5 |
| 20260505122424 | 56 | 0 | 0.0 | 2.0 | 0.00 | 0.00 | 0.00 | 51 | 1022.5 |
| 20260505121530 | 56 | 0 | 1.0 | 3.0 | 0.00 | 0.00 | 0.00 | 51 | 1022.5 |
| 20260505120636 | 56 | 0 | 1.0 | 3.0 | 0.00 | 0.00 | 0.00 | 51 | 1022.6 |
| 20260505115742 | 55 | 0 | 1.0 | 2.0 | 0.00 | 0.00 | 0.00 | 52 | 1022.9 |
| 20260505114847 | 55 | 0 | 0.0 | 3.0 | 0.00 | 0.00 | 0.00 | 52 | 1023.0 |
| 20260505113952 | 55 | 0 | 2.0 | 3.0 | 0.00 | 0.00 | 0.00 | 52 | 1023.0 |
| 20260505113059 | 56 | 0 | 0.0 | 7.0 | 0.00 | 0.00 | 0.00 | 51 | 1022.7 |
| 20260505112205 | 56 | 0 | 2.0 | 7.0 | 0.00 | 0.00 | 0.00 | 50 | 1022.9 |
| 20260505111311 | 55 | 0 | 0.0 | 4.0 | 0.00 | 0.00 | 0.00 | 52 | 1023.2 |
| 20260505110417 | 55 | 0 | 2.0 | 4.0 | 0.00 | 0.00 | 0.00 | 51 | 1023.0 |
| 20260505101948 | 55 | 0 | 2.0 | 3.0 | 0.00 | 0.00 | 0.00 | 52 | 1022.2 |
| 20260505101054 | 55 | 0 | 0.0 | 1.0 | 0.00 | 0.00 | 0.00 | 53 | 1022.1 |
| 20260505100159 | 55 | 0 | 0.0 | 1.0 | 0.00 | 0.00 | 0.00 | 52 | 1022.0 |
| 20260505095306 | 55 | 0 | 1.0 | 4.0 | 0.00 | 0.00 | 0.00 | 52 | 1022.0 |
| 20260505094412 | 55 | 0 | 1.0 | 4.0 | 0.00 | 0.00 | 0.00 | 52 | 1021.7 |
| 20260505093519 | 55 | 0 | 1.0 | 3.0 | 0.00 | 0.00 | 0.00 | 52 | 1021.6 |
| 20260505092623 | 55 | 0 | 2.0 | 3.0 | 0.00 | 0.00 | 0.00 | 51 | 1021.4 |
| 20260505091729 | 55 | 0 | 0.0 | 1.0 | 0.00 | 0.00 | 0.00 | 51 | 1021.4 |